Showing default

STARLETTE, 7646

Orbit data source: Space-Track

STARLETTE, 7646 is a payload satellite owned by CNES (FR) in LEO that was launched on Thu, 06 Feb 1975 UTC via a DIAMANT BP.4 launch vehicle from the French Guiana (FRGUI). Payload-class satellites include a variety of spacecraft equipped with specific instruments for various scientific and technological missions. These include communications satellites like Starlink; space stations such as the ISS; scientific satellites like the Hubble; Earth observation satellites from companies like Planet Labs, Umbra, and HawkEye 360; GPS; miniature CubeSats for education and research; and military/defense satellites.

Loading next visibility...
Identifier
7646, 1975-010A
Orbit
LEO
Country
Flag of FRFR
Related business
Manufacturer
CNES
Mission
Operational spacecraft
Bus & Motor
STARLETTE, Unknown motor
Mass
48 kg wet, 48 kg dry
Launch date (UTC)
1975-02-06 (51 years ago)
Launch vehicle
DIAMANT BP.4
Launch site
French Guiana (FRGUI)
Object type
Payload
Rocket body
Debris
Shape & HBR
Unknown
Radar Cross Section
Medium (>0.1 m² and <1 m²)

Expand to show TLE details & history
Last TLE update: 6 hours ago

TLE from 6 hours ago
0 STARLETTE
1  7646U 75010A   26128.18509969 -.00000121  00000-0  15393-4 0  9992
2  7646  49.8250 262.4914 0205635 290.8814  67.0173 13.82349932589004
Epoch: 2026-05-08T04:26Z
TLE epoch observation values (Epoch: 2026-05-08T04:26:32.613Z)
Latitude
-0.00004°
Longitude
-30.16504°
Altitude
899.846 km
Speed
7.432 km/s
True Right ascension
17h 29m 57s
True Declination
0° 00' 00"
Sunlit
Object was in full shadow at epoch
Visualization orbit readout
Latitude
Unknown
Longitude
Unknown
Altitude
Unknown
Speed
Unknown
Apparent Right ascension
Unknown
Apparent Declination
Unknown
Sunlit
N/A
Visualization observer readout
Local Sidereal Time
18:42:58
Azimuth
Unknown
Elevation
Unknown
Doppler factor
Unknown
Orbital elements
Apogee altitude
1,107.137 km
Perigee altitude
805.493 km
Semi-major axis
7,334.452 km
Eccentricity
0.02056
Inclination
49.825°
RAAN
262.4914°
Arg. of periapsis
290.8814°
True anomaly
69.20811°
Mean anomaly
67.0173°
Eccentric anomaly
68.11056°
Mean motion
3.45535 °/min
Orbital period
104.19 mins
BSTAR
0.000015393
Loading maneuver chart data...
Computing Atmospheric mass density...
Loading historical data...
Loading historical data...
Loading historical data...
Loading historical data...
Loading historical data...
Loading historical data...
Loading historical data...
Other satellites on launch #10 in the year 1975 (1975-02-06 UTC)

Documentation

Showing up to 5 results
|